Terug naar catalogus

STARLINK-4517

ActiefCommunicatieVLEO
NORAD 53390·PAYLOAD·🇺🇸 United States

Gelanceerd Aug 10, 2022 vanaf Cape Canaveral Space Force Station

Loading…

Volgende Passages (komende 24 uur)

TLE

VersSource: CelesTrak SupGP

Epoch: Sep 15, 2026, 01:58 UTC

1 53390C 22097C   26258.08243056  .00044248  00000+0  12662-2 0  2589
2 53390  53.1584 347.4546 0001032  90.6170 286.4360 15.35370169    10

Volg STARLINK-4517 in realtime met AllMySat

Download on the App Store